Location: Four Corners
(38.2757°N, 122.4608°W)
Time: 12:50:17
(UTC+00:00)

FengYun 1-2 T - Pass Details

Date: 08 December 2019
Orbit: 847 x 880 km, 98.7° (Epoch: 27 January)

Event Time Altitude Azimuth Distance (km) Brightness Sun altitude
Rises 02:00:10 0° 153° (SSE) 3,396 7.3 -13.6°
Reaches altitude 10° 02:02:33 10° 149° (SSE) 2,463 6.5 -14.0°
Maximum altitude 02:07:52 56° 72° (ENE) 1,004 4.2 -15.0°
Drops below altitude 10° 02:13:14 10° 356° (N) 2,482 6.5 -16.0°
Sets 02:15:39 0° 352° (N) 3,425 7.3 -16.5°
